Date String (YYYY-MM-DD hh:mm:ss) UTC,Instrument flags,Ambient pressure (hPa),Sample flow (lpm),Bypass flow (lpm),Sample temperature (°C),Ambient temperature (°C),ASC tube jacket temperature (°C),LED temperature (°C),Box temperature (°C),Sample RH (%),Span deviation,Mass concentration (μg/m³),Mass concentration (μg/m³),Mass concentration (μg/m³)
DateTimeUTC,F1_M11,P_M11,Q1_M11,Q2_M11,T1_M11,T2_M11,T3_M11,T4_M11,T5_M11,U1_M11,ZSPAN_M11,X0_M11,X2_M11,X1_M11
2021-11-17 04:00:00,,0820.5,5.00,0.00,29.1,28.2,00.0,38.1,30.8,08.9,0000.0,0002.54,0000.74,0000.41
2021-11-17 04:01:00,,0820.6,5.01,0.00,29.1,28.2,00.0,38.1,30.8,08.9,0000.0,0002.44,0000.70,0000.41
2021-11-17 04:02:00,,0820.6,5.00,0.00,29.0,28.2,00.0,38.1,30.8,09.0,0000.0,0002.34,0000.67,0000.41
2021-11-17 04:03:00,,0820.6,5.00,0.00,29.0,28.2,00.0,38.1,30.7,09.0,0000.0,0002.21,0000.64,0000.41
2021-11-17 04:04:00,,0820.6,4.99,0.00,29.0,28.2,00.0,38.1,30.7,09.0,0000.0,0002.47,0000.66,0000.41
2021-11-17 04:05:00,,0820.6,5.02,0.00,29.0,28.2,00.0,38.1,30.7,08.9,0000.0,0002.58,0000.64,0000.41
2021-11-17 04:06:00,,0820.6,4.99,0.00,29.0,28.2,00.0,38.1,30.7,08.9,0000.0,0002.65,0000.65,0000.41
2021-11-17 04:07:00,,0820.6,5.00,0.00,29.0,28.2,00.0,38.1,30.8,08.9,0000.0,0002.69,0000.68,0000.42
2021-11-17 04:08:00,,0820.6,5.00,0.00,29.0,28.2,00.0,38.1,30.8,08.9,0000.0,0003.42,0000.66,0000.42
2021-11-17 04:09:00,,0820.6,4.99,0.00,29.0,28.2,00.0,38.1,30.8,08.9,0000.0,0004.07,0000.70,0000.42
2021-11-17 04:10:00,,0820.6,5.01,0.00,29.0,28.2,00.0,38.1,30.8,08.9,0000.0,0004.32,0000.78,0000.42
2021-11-17 04:11:00,,0820.6,4.99,0.00,29.0,28.2,00.0,38.1,30.8,08.9,0000.0,0004.40,0000.82,0000.42
2021-11-17 04:12:00,,0820.6,5.00,0.00,29.0,28.2,00.0,38.1,30.8,08.9,0000.0,0004.47,0000.85,0000.42
2021-11-17 04:13:00,,0820.6,5.00,0.00,29.0,28.2,00.0,38.1,30.8,08.9,0000.0,0004.70,0000.91,0000.42
2021-11-17 04:14:00,,0820.6,5.01,0.00,29.0,28.2,00.0,38.1,30.8,08.9,0000.0,0004.73,0000.92,0000.41
2021-11-17 04:15:00,,0820.6,4.99,0.00,29.0,28.2,00.0,38.1,30.8,08.9,0000.0,0004.42,0000.94,0000.41
2021-11-17 04:16:00,,0820.6,5.01,0.00,29.0,28.2,00.0,38.1,30.8,08.9,0000.0,0004.30,0000.96,0000.41
2021-11-17 04:17:00,,0820.7,4.99,0.00,29.0,28.2,00.0,38.1,30.8,08.9,0000.0,0004.14,0000.91,0000.41
2021-11-17 04:18:00,,0820.7,5.00,0.00,29.0,28.2,00.0,38.1,30.8,08.9,0000.0,0003.93,0000.88,0000.40
2021-11-17 04:19:00,,0820.7,4.99,0.00,29.0,28.1,00.0,38.1,30.8,09.0,0000.0,0002.50,0000.88,0000.40
2021-11-17 04:20:00,,0820.8,5.01,0.00,29.0,28.1,00.0,38.1,30.8,09.1,0000.0,0002.02,0000.89,0000.41
2021-11-17 04:21:00,,0820.8,5.00,0.00,29.0,28.1,00.0,38.1,30.7,09.1,0000.0,0002.37,0000.85,0000.41
2021-11-17 04:22:00,,0820.8,5.00,0.00,28.9,28.1,00.0,38.1,30.7,09.2,0000.0,0003.09,0000.90,0000.42
2021-11-17 04:23:00,,0820.8,5.00,0.00,28.9,28.0,00.0,38.1,30.7,09.1,0000.0,0003.64,0000.96,0000.44
2021-11-17 04:24:00,,0820.8,5.00,0.00,28.9,28.0,00.0,38.0,30.6,09.2,0000.0,0003.97,0001.03,0000.47
2021-11-17 04:25:00,,0820.8,5.00,0.00,28.9,28.0,00.0,38.0,30.6,09.2,0000.0,0005.49,0001.09,0000.49
2021-11-17 04:26:00,,0820.8,5.00,0.00,28.9,28.0,00.0,38.0,30.6,09.2,0000.0,0005.73,0001.15,0000.52
2021-11-17 04:27:00,,0820.8,5.00,0.00,28.9,28.0,00.0,38.0,30.6,09.2,0000.0,0005.89,0001.20,0000.53
2021-11-17 04:28:00,,0820.9,4.99,0.00,28.9,28.0,00.0,38.0,30.6,09.2,0000.0,0006.37,0001.24,0000.55
2021-11-17 04:29:00,,0820.9,5.00,0.00,28.9,28.0,00.0,38.0,30.6,09.2,0000.0,0006.71,0001.31,0000.57
2021-11-17 04:30:00,,0820.9,5.00,0.00,28.9,28.1,00.0,38.0,30.7,09.2,0000.0,0006.84,0001.36,0000.60
2021-11-17 04:31:00,,0821.0,5.01,0.00,28.9,28.1,00.0,38.0,30.7,09.2,0000.0,0006.98,0001.41,0000.63
2021-11-17 04:32:00,,0821.0,5.00,0.00,28.9,28.1,00.0,38.0,30.7,09.5,0000.0,0006.73,0001.53,0000.65
2021-11-17 04:33:00,,0821.0,4.99,0.00,28.9,28.1,00.0,38.0,30.6,10.1,0000.0,0007.04,0001.62,0000.69
2021-11-17 04:34:00,,0821.0,5.01,0.00,28.8,27.9,00.0,38.0,30.6,10.4,0000.0,0007.34,0001.68,0000.72
2021-11-17 04:35:00,,0821.0,5.01,0.00,28.8,27.8,00.0,37.9,30.5,10.4,0000.0,0007.44,0001.77,0000.75
2021-11-17 04:36:00,,0821.0,4.99,0.00,28.7,27.8,00.0,37.9,30.4,10.4,0000.0,0007.82,0001.85,0000.78
2021-11-17 04:37:00,,0821.1,5.00,0.00,28.7,27.6,00.0,37.9,30.3,10.8,0000.0,0007.89,0001.92,0000.80
2021-11-17 04:38:00,,0821.1,5.01,0.00,28.7,27.6,00.0,37.9,30.3,10.8,0000.0,0009.09,0001.97,0000.82
2021-11-17 04:39:00,,0821.1,5.00,0.00,28.7,27.6,00.0,37.9,30.3,10.8,0000.0,0010.22,0002.08,0000.84
2021-11-17 04:40:00,,0821.2,5.00,0.00,28.6,27.7,00.0,37.8,30.3,10.9,0000.0,0010.77,0002.21,0000.87
2021-11-17 04:41:00,,0821.2,5.01,0.00,28.6,27.7,00.0,37.8,30.3,11.0,0000.0,0010.88,0002.33,0000.90
2021-11-17 04:42:00,,0821.1,5.00,0.00,28.6,27.6,00.0,37.8,30.3,11.1,0000.0,0011.15,0002.35,0000.91
2021-11-17 04:43:00,,0821.1,5.01,0.00,28.6,27.6,00.0,37.8,30.3,11.2,0000.0,0011.55,0002.31,0000.92
2021-11-17 04:44:00,,0821.1,5.00,0.00,28.6,27.7,00.0,37.8,30.3,11.3,0000.0,0011.61,0002.28,0000.91
2021-11-17 04:45:00,,0821.1,4.99,0.00,28.5,27.7,00.0,37.8,30.3,11.4,0000.0,0011.62,0002.24,0000.89
2021-11-17 04:46:00,,0821.2,4.99,0.00,28.5,27.7,00.0,37.7,30.3,11.4,0000.0,0012.16,0002.23,0000.87
2021-11-17 04:47:00,,0821.1,5.01,0.00,28.5,27.7,00.0,37.7,30.2,11.5,0000.0,0011.95,0002.30,0000.85
2021-11-17 04:48:00,,0821.1,5.02,0.00,28.5,27.7,00.0,37.7,30.3,11.6,0000.0,0011.97,0002.26,0000.83
2021-11-17 04:49:00,,0821.1,5.01,0.00,28.5,27.7,00.0,37.7,30.3,11.5,0000.0,0011.59,0002.23,0000.83
2021-11-17 04:50:00,,0821.2,5.00,0.00,28.5,27.7,00.0,37.7,30.2,11.6,0000.0,0010.59,0002.28,0000.84
2021-11-17 04:51:00,,0821.2,4.99,0.00,28.5,27.7,00.0,37.7,30.2,11.6,0000.0,0009.99,0002.23,0000.81
2021-11-17 04:52:00,,0821.1,4.99,0.00,28.5,27.7,00.0,37.6,30.2,11.7,0000.0,0011.03,0002.20,0000.81
2021-11-17 04:53:00,,0821.2,5.01,0.00,28.5,27.7,00.0,37.6,30.2,11.8,0000.0,0011.69,0002.28,0000.80
2021-11-17 04:54:00,,0821.2,5.00,0.00,28.5,27.6,00.0,37.6,30.2,11.9,0000.0,0011.64,0002.28,0000.79
2021-11-17 04:55:00,,0821.2,5.00,0.00,28.4,27.6,00.0,37.6,30.2,11.9,0000.0,0012.33,0002.28,0000.78
2021-11-17 04:56:00,,0821.2,5.01,0.00,28.4,27.6,00.0,37.6,30.2,11.9,0000.0,0012.20,0002.31,0000.79
2021-11-17 04:57:00,,0821.3,4.99,0.00,28.5,27.7,00.0,37.6,30.2,12.0,0000.0,0011.71,0002.28,0000.80
2021-11-17 04:58:00,,0821.4,5.01,0.00,28.5,27.7,00.0,37.6,30.3,12.0,0000.0,0011.17,0002.25,0000.81
2021-11-17 04:59:00,,0821.4,5.00,0.00,28.5,27.7,00.0,37.6,30.3,12.0,0000.0,0011.16,0002.29,0000.81
